{"data":{"norad_id":53571,"intl_designator":"2022-101AW","name":"STARLINK-4584","alt_names":[],"object_type":"PAYLOAD","status":"ACTIVE","operator":null,"country":"US","launch_date":"2022-08-19","launch_site_code":"AFETR","launch_vehicle":null,"mission":null,"orbit_class":"UNKNOWN","rcs_meters":null,"size_class":null,"mass_kg":null,"dimensions":null,"purposes":["comms"],"wikipedia_slug":null,"has_3d_model":false,"image_url":null,"decayed_at":null,"tle_current":{"epoch":"2026-09-19T13:20:04.763616Z","epoch_age_seconds":160287,"freshness":"FRESH","line1":"1 53571U 22101AW  26262.55561069  .00000124  00000+0  14800-4 0  9995","line2":"2 53571  53.1590 248.3490 0001247  88.0726 272.0419 15.34387043226611","mean_motion":15.34387043,"eccentricity":0.0001247,"inclination_deg":53.159,"raan_deg":248.349,"arg_perigee_deg":88.0726,"mean_anomaly_deg":272.0419,"bstar":1.48e-5,"rev_number":22661,"period_min":93.848550570692,"perigee_km":461.88869383237,"apogee_km":463.59480899297,"semimajor_km":6840.8787514127,"source":"CELESTRAK","updated_at":"2026-09-21T09:00:32.931196Z"}}}